COSMOS 1229

Satellite information

Favourite Embed

Satellite Type and Status

PAYLOADIN ORBIT

Key statistics

Satellite COSMOS 1229 at a glance.

Uptime

16384

Days in orbit

Revolutions

≈ 12.6

Per day

Orbit

LEO

Low Earth Orbit

Inclination

74.0

Latest

Satellite identification and parameters

Extended collection of information and parameters for COSMOS 1229.

Object identification

Identified? True

Debris? False

Object name: COSMOS 1229

International designator: 1980-102B

Object number (NORAD): 12108

Object ID (CCSDS): 12108

Country: COMMONWEALTH OF INDEPENDENT STATES (CIS)

Current information (Y/N): Y

RCS size: MEDIUM

Orbital parameters

Period: 114.639 minutes

Inclination: 73.9954 deg

SMA: 7817.145 km

Apoapsis: 1463.166 km

Periapsis: 1414.854 km

RAAN: 339.942 deg

Eccentricy: 0.0030901

Argument of periapsis: 97.5629 deg

Mean anomaly: 70.5846 deg

Mean motion: 12.56118235 rev/day

Mean motion (dot): 0.00000002 rev/day2

B* drag term: 0.00011135 1/REarth

Two-line elements (TLE)

Creation date: Oct. 31, 2025, 6:16 p.m.

Reference frame: TEME

Reference center: EARTH

Epoch: Oct. 31, 2025, 1:31 p.m. UTC

TLE line 0: 0 COSMOS 1229

TLE line 1: 1 12108U 80102B 25304.56370249 .00000002 00000-0 11135-3 0 9999

TLE line 2: 2 12108 73.9954 339.9420 0030901 97.5629 70.5846 12.56118235 56704

Live tracking on map

Real-time ground track for satellite COSMOS 1229.

In-orbit conjunctions

There are no conjunctions computed for COSMOS 1229, at the moment. Check back to stay up to date, as we update our databases every day.

Go to all conjunctions

Associated space launch

Military communications satellites

COSMOS 1229 was lifted into orbit during the mission ‘Kosmos-3M | Strela-1M 201-208’, on board a Kosmos-3M space rocket.

The launch took place on Dec. 23, 1980, 10:48 p.m. from 132/1 (132L).

For more information about the launch, click the button.

Launch to space Kosmos-3M | Strela-1M 201-208
Kosmos-3M | Strela-1M 201-208

Agency: N/A

Status: Launch Successful

Launch date: Dec. 23, 1980, 10:48 p.m. UTC

Rocket: Kosmos-3M

Launch pad: 132/1 (132L)

Location: Plesetsk Cosmodrome, Russian Federation

...

Latest news about this satellite

There are no fresh news available about this satellite. Check back as we update our databases every day.


Newsletter sign-up

Weekly statistics, charts and insights to help you stay on top of the space industry.